Guantanamo Bay NAS, Cuba

5:05 PM CDT on April 26, 2018 (GMT -0400)
Guantanamo Bay Naval Air Station

Weather History for MUGM - April, 2018

Change the Weather History Date:

Monday, April 16, 2018

  Actual Average Record
Temperature  
Mean Temperature 80 °F -  
Max Temperature 88 °F 84 °F 90 °F (2015)
Min Temperature 73 °F 72 °F 66 °F (2004)
Cooling Degree Days 16    
Growing Degree Days 30 (Base 50)    
Moisture  
Dew Point 75 °F    
Average Humidity 87    
Maximum Humidity 100    
Minimum Humidity 69    
Precipitation  
Precipitation 0.00 in - - ()
Sea Level Pressure  
Sea Level Pressure 30.04 in    
Wind  
Wind Speed 8 mph ()    
Max Wind Speed 21 mph    
Max Gust Speed -    
Visibility 6.2 miles    
Events      
Averages and records for this station are not official NWS values.
T = Trace of Precipitation, MM = Missing Value Source: Averaged Metar Reports

Daily Weather History Graph

Daily Weather History Graph

Search for Another Location

Airport or City:

Astronomy

Apr. 16, 2018 Rise Set
Actual Time 6:42 AM CDT 7:19 PM CDT
Civil Twilight 6:19 AM CDT 7:41 PM CDT
Nautical Twilight 5:53 AM CDT 8:08 PM CDT
Astronomical Twilight 5:26 AM CDT 8:34 PM CDT
Moon 7:16 AM CDT (4/16) 8:06 PM CDT (4/16)
Length of Visible Light 13h 22m
Length of Day
12h 37m
New Moon, 0% of the Moon is Illuminated
Apr 16
New Moon
Apr 22
First Quarter
Apr 29
Full
May 7
Last Quarter
May 15
New

Hourly Weather History & Observations

Time (CDT) Temp. Heat Index Dew Point Humidity Pressure Visibility Wind Dir Wind Speed Gust Speed Precip Events Conditions
12:56 AM 80.1 °F 86.4 °F 78.1 °F 94% 30.07 in 6.2 mi East 6.9 mph - N/A   Partly Cloudy
1:56 AM 77.0 °F - 75.0 °F 94% 30.06 in 6.2 mi North 5.8 mph - N/A   Partly Cloudy
2:56 AM 75.9 °F - 73.0 °F 91% 30.05 in 6.2 mi North 4.6 mph - N/A   Partly Cloudy
3:56 AM 73.9 °F - 73.9 °F 100% 30.04 in 6.2 mi NNW 5.8 mph - N/A   Partly Cloudy
4:56 AM 73.9 °F - 73.9 °F 100% 30.04 in 6.2 mi North 8.1 mph - N/A   Partly Cloudy
5:56 AM 73.0 °F - 73.0 °F 100% 30.05 in 6.2 mi NNW 8.1 mph - N/A   Partly Cloudy
6:56 AM 73.9 °F - 73.9 °F 100% 30.06 in 6.2 mi North 8.1 mph - N/A   Scattered Clouds
7:56 AM 75.9 °F - 73.9 °F 94% 30.08 in 6.2 mi North 6.9 mph - N/A   Scattered Clouds
8:56 AM 80.1 °F 85.4 °F 75.9 °F 87% 30.08 in 6.2 mi North 5.8 mph - N/A   Scattered Clouds
9:56 AM 84.0 °F 91.9 °F 75.0 °F 74% 30.09 in 6.2 mi Variable 4.6 mph - N/A   Partly Cloudy
10:56 AM 84.9 °F 92.1 °F 73.9 °F 69% 30.09 in 6.2 mi SSW 6.9 mph - N/A   Scattered Clouds
11:56 AM 86.0 °F 95.1 °F 75.0 °F 70% 30.07 in 6.2 mi South 10.4 mph - N/A   Scattered Clouds
12:56 PM 87.1 °F 97.3 °F 75.9 °F 69% 30.05 in 6.2 mi SSW 12.7 mph - N/A   Scattered Clouds
1:56 PM 87.1 °F 98.8 °F 77.0 °F 72% 30.02 in 6.2 mi SW 20.7 mph - N/A   Partly Cloudy
2:56 PM 88.0 °F 100.2 °F 77.0 °F 70% 29.99 in 6.2 mi SW 19.6 mph - N/A   Partly Cloudy
3:56 PM 87.1 °F 98.8 °F 77.0 °F 72% 29.97 in 6.2 mi SW 19.6 mph - N/A   Mostly Cloudy
4:56 PM 86.0 °F 96.9 °F 77.0 °F 74% 29.99 in 6.2 mi WSW 13.8 mph - N/A   Mostly Cloudy
5:56 PM 82.9 °F 88.8 °F 73.0 °F 72% 29.99 in 6.2 mi NW 10.4 mph - N/A   Mostly Cloudy
6:56 PM 75.9 °F - 75.9 °F 100% 30.01 in 6.2 mi NNW 10.4 mph - 0.00 in   Mostly Cloudy
7:56 PM 77.0 °F - 75.0 °F 94% 30.02 in 6.2 mi NNW 11.5 mph - N/A   Mostly Cloudy
8:56 PM 75.0 °F - 75.0 °F 100% 30.03 in 6.2 mi NW 6.9 mph - N/A   Mostly Cloudy
9:56 PM 75.0 °F - 73.9 °F 96% 30.05 in 6.2 mi NNW 6.9 mph - N/A   Mostly Cloudy
10:56 PM 75.9 °F - 73.9 °F 94% 30.06 in 6.2 mi NNW 5.8 mph - N/A   Mostly Cloudy
11:56 PM 75.9 °F - 73.9 °F 94% 30.05 in 6.2 mi North 9.2 mph - N/A   Partly Cloudy